OneWeb SL0425

operational
NORAD ID: 51628 Int'l Des: 2022-012 Owner: ONEWEBN Country: UK Constellation: oneweb
LEOCIRCULARPOLARONEWEB_TYPE

OneWeb SL0425について

説明を読み込み中...

リアルタイム位置

3D地球を読み込み中...

次回通過

高度履歴

Altitude vs Time

uPlot chart will show altitude changes over time

軌道要素

1 51628U 22012G 25306.40219138 -.00000581 00000-0 -17013-2 0 9993
2 51628 87.8783 81.4675 0001243 94.0676 266.0593 13.10373180179621
Epoch: Nov 2, 2025 • Age: 31 hours

現在のステータス

高度 1250.1 km
速度 7.23 km/s
衛星直下点 -75.67°S, 17.79°W
打ち上げ日 Feb 10, 2022
運用期間 3.7 years
タイプ internet

技術仕様

分類 Payload
質量 148.00 kg
乾燥質量 140.00 kg
総質量 148.00 kg
長さ 1.30 m
直径 1.00 m
スパン 5.00 m
形状 Trapezoid+2 pan
製造者 ONEWUS
バスタイプ ARROW
フェーズステータス In Orbit
所有者/国 ONEWEBN/UK

大規模コンステレーション

Loading constellations...